Temp
12 12 12 12 13 13 13 13 13 14 14 14 14 14 14 14 14 14 14 15 14 14 13 13 13 13 12 12 12 12 11 11 12 11 13 9 10 10 10 10 10 10 10 10 10
13 13 13 13 13 13 13 13 13 13 14 14 14 13 13 14 13 15 15 15 13 13 13 13 13 12 12 12 12 10 9 11 10 10 13 10 10 10 9 8 8 10 10 10 9
13 12 13 13 13 13 13 13 13 13 13 13 14 13 13 13 13 15 15 16 13 13 13 13 12 11 11 11 11 10 11 10 12 13 13 11 9 10 9 8 11 12 13 10 9
13 13 13 13 13 13 13 13 13 13 13 13 13 13 13 12 12 15 14 14 13 12 12 12 11 11 9 10 11 10 10 10 12 13 12 10 10 7 9 14 15 14 14 12 9
12 11 11 12 12 13 13 13 13 13 13 13 13 12 12 10 13 13 13 12 12 12 12 12 11 11 9 9 10 9 9 11 11 12 11 10 9 9 9 14 13 13 13 12 11
11 11 11 11 11 12 12 13 13 13 13 12 12 12 10 8 12 12 12 11 11 12 12 11 11 11 10 10 9 10 9 9 11 11 10 8 8 8 12 13 12 11 11 12 11
10 10 10 10 10 11 11 12 12 13 12 12 11 10 10 12 11 11 11 11 11 11 11 11 10 10 10 9 10 9 9 8 8 9 8 8 6 7 12 10 10 10 10 10 10
8 9 10 10 10 10 11 12 11 12 11 11 10 9 10 10 10 10 10 10 10 10 10 10 10 10 10 10 9 9 8 9 9 6 8 9 11 11 9 8 8 9 9 8 8
8 9 9 10 10 10 11 11 11 11 10 9 8 8 9 9 9 9 9 10 10 10 9 10 9 9 8 7 7 6 8 7 8 6 6 6 8 9 7 6 7 7 7 7 6
8 8 9 10 10 10 10 11 9 9 8 8 8 7 9 9 9 9 9 9 9 9 9 9 8 5 4 6 8 7 6 6 7 7 6 6 5 7 7 6 7 9 9 7 7
8 8 9 10 10 10 9 10 9 8 8 7 7 6 7 8 8 8 9 9 8 8 6 7 6 6 6 5 7 8 7 7 7 7 6 6 7 7 8 5 6 8 6 6 7
7 8 9 10 10 8 8 6 4 4 3 7 7 6 7 7 7 7 8 8 7 6 5 5 5 5 6 5 5 5 6 6 6 5 5 5 6 6 7 7 6 5 4 5 5
7 7 10 10 10 8 6 4 3 3 3 6 7 7 7 7 7 7 7 7 7 5 4 5 8 6 6 6 6 5 5 5 7 5 4 3 6 6 7 4 3 2 1 2 3
7 7 9 10 8 7 5 3 4 3 3 8 7 8 8 7 7 7 7 7 6 6 4 5 6 7 6 7 6 6 5 5 5 6 5 3 7 8 9 4 2 -1 -2 -1 0
7 7 7 8 7 5 4 3 4 4 7 8 8 8 8 7 7 6 6 6 7 6 6 8 7 6 7 6 5 6 4 5 4 4 3 3 4 6 4 4 1 -4 -3 -2 -2
7 7 6 6 5 4 4 4 4 5 5 7 8 6 7 7 6 6 6 6 6 5 5 5 4 3 4 2 3 3 4 3 1 2 2 4 5 4 3 0 -2 -4 -4 -3 -2
7 6 5 5 4 5 5 5 4 5 7 6 5 5 5 5 6 5 5 3 4 6 5 5 3 2 2 4 3 4 4 4 3 1 4 1 2 2 -2 -5 -6 -6 -3 -1 -1
7 6 5 5 4 5 5 4 8 5 4 4 5 4 5 4 5 4 6 4 1 3 3 3 4 3 2 3 3 2 3 3 3 3 2 -1 3 3 -6 -6 -5 -4 -2 -1 -0
6 6 5 5 5 5 5 2 4 3 3 3 4 5 5 4 4 4 4 2 0 1 2 2 3 1 1 1 2 1 2 1 0 -0 1 2 2 0 -1 -3 -4 -3 -3 -2 -1
5 5 4 5 5 5 2 4 3 2 2 3 4 4 3 2 3 2 3 2 1 1 2 1 1 2 1 1 1 1 0 -1 -1 1 2 0 -0 2 -2 -1 -2 -2 -1 2 2
4 3 4 5 5 4 2 2 2 2 3 2 3 2 3 1 1 1 2 2 1 1 1 1 1 1 1 -0 1 -1 -1 -1 -2 1 0 3 1 -4 -0 -0 0 -2 0 2 2
-1 -2 4 5 2 -1 0 1 2 2 2 2 2 2 2 1 0 2 2 2 0 1 -0 -2 -2 0 0 -2 -3 -4 -2 -2 1 -1 0 0 1 -4 -3 -2 -2 1 -0 -0 -0
-2 -2 3 3 0 -0 0 0 1 1 1 0 1 1 1 1 -1 1 0 -0 0 0 -3 -2 -3 -3 -0 -2 -3 -1 -2 -1 -1 -1 -1 1 1 -4 -6 -4 -2 -2 -2 -2 -1
-2 -3 0 1 -1 -1 -2 -0 0 1 -1 -1 -1 -0 -1 -1 -0 -1 -1 0 -0 0 1 0 -2 -2 -2 0 1 0 -1 -1 -1 0 1 1 1 -1 -2 -1 -2 -2 -2 -3 -3
-2 -3 -3 -4 -2 -2 -2 -2 -1 -1 -1 -1 -2 -1 -4 -6 -5 -4 -1 -4 -2 -0 -3 -1 -2 -3 -2 -2 -1 -1 -1 -0 -0 0 -0 -0 -0 -1 -1 -2 -3 -4 -3 -3 -3
-2 -2 -2 -3 -3 -4 -2 -2 -1 -1 -2 -2 -3 -2 -7 -6 -4 -3 -6 -6 -4 -8 -6 -4 -2 -3 -3 -2 -2 -2 -2 -2 -1 -0 -0 -1 -1 -1 -3 -3 -4 -4 -4 -4 -4
-3 -3 -3 -2 -4 -3 -3 -2 -1 -2 -1 -1 -2 -5 -5 -3 -2 -2 -2 -2 -3 -4 -2 -2 -3 -4 -4 -2 -3 -4 -4 -2 -3 -2 -1 -2 -2 -3 -3 -3 -5 -5 -5 -5 -5
Height
1529 1526 1522 1519 1516 1514 1511 1508 1505 1502 1500 1497 1495 1492 1490 1487 1485 1483 1479 1480 1479 1480 1483 1485 1487 1489 1491 1492 1494 1494 1498 1494 1482 1488 1478 1479 1480 1480 1479 1481 1483 1482 1481 1482 1481
1527 1524 1520 1517 1514 1510 1507 1504 1502 1499 1496 1493 1491 1489 1486 1483 1479 1474 1474 1472 1473 1476 1479 1481 1483 1485 1488 1489 1491 1491 1494 1484 1478 1476 1475 1476 1478 1477 1478 1477 1477 1477 1477 1479 1481
1526 1522 1518 1515 1511 1507 1504 1501 1498 1495 1492 1489 1487 1485 1482 1480 1477 1470 1469 1469 1470 1473 1476 1478 1480 1483 1484 1484 1483 1482 1481 1475 1473 1473 1473 1474 1475 1474 1475 1475 1468 1466 1469 1473 1476
1523 1519 1515 1511 1507 1503 1499 1496 1493 1490 1486 1484 1482 1480 1478 1478 1480 1469 1468 1469 1470 1472 1473 1474 1477 1480 1481 1481 1478 1480 1471 1472 1470 1470 1471 1471 1470 1470 1469 1461 1463 1465 1467 1469 1471
1520 1516 1511 1506 1501 1498 1494 1491 1487 1483 1480 1478 1477 1475 1473 1472 1469 1466 1467 1467 1469 1470 1471 1472 1473 1475 1476 1475 1475 1475 1469 1469 1468 1469 1468 1468 1466 1466 1461 1458 1461 1462 1462 1462 1465
1517 1512 1507 1502 1497 1492 1488 1484 1481 1477 1474 1472 1470 1469 1469 1470 1463 1463 1465 1466 1467 1468 1468 1469 1469 1470 1472 1471 1471 1468 1468 1467 1466 1464 1465 1466 1465 1466 1450 1453 1455 1456 1458 1459 1460
1515 1510 1504 1497 1491 1486 1482 1478 1474 1470 1468 1467 1466 1465 1462 1460 1459 1459 1460 1462 1464 1466 1467 1468 1470 1470 1469 1468 1467 1466 1467 1464 1461 1460 1461 1461 1465 1460 1446 1448 1450 1451 1452 1454 1456
1510 1504 1500 1494 1488 1482 1476 1472 1467 1463 1461 1459 1461 1463 1461 1458 1458 1458 1458 1459 1460 1462 1464 1466 1468 1469 1469 1468 1466 1467 1468 1465 1456 1457 1458 1459 1450 1445 1444 1447 1446 1446 1447 1448 1449
1508 1502 1495 1488 1483 1477 1473 1467 1461 1457 1456 1456 1458 1460 1458 1457 1457 1456 1458 1458 1459 1460 1461 1463 1465 1467 1468 1470 1473 1471 1467 1468 1460 1455 1457 1458 1452 1443 1443 1443 1442 1442 1443 1444 1447
1508 1500 1492 1486 1480 1473 1468 1464 1459 1457 1456 1455 1455 1460 1456 1457 1456 1455 1456 1457 1458 1459 1461 1462 1463 1466 1470 1471 1468 1467 1470 1469 1464 1456 1457 1458 1453 1444 1443 1443 1439 1438 1436 1436 1439
1505 1497 1489 1482 1477 1471 1466 1462 1463 1460 1457 1457 1458 1455 1453 1453 1454 1454 1454 1455 1455 1457 1461 1461 1465 1463 1461 1464 1462 1462 1465 1464 1457 1453 1456 1450 1445 1441 1436 1437 1432 1426 1429 1430 1433
1502 1494 1485 1478 1474 1470 1467 1467 1471 1472 1461 1454 1453 1451 1450 1449 1451 1452 1454 1456 1455 1458 1459 1464 1462 1455 1456 1458 1461 1463 1464 1459 1453 1452 1454 1448 1436 1435 1426 1423 1427 1427 1427 1427 1427
1499 1490 1482 1475 1471 1469 1466 1468 1470 1470 1466 1455 1451 1452 1452 1451 1448 1447 1450 1452 1454 1458 1460 1460 1451 1451 1454 1456 1459 1460 1460 1456 1451 1453 1453 1452 1432 1426 1419 1424 1427 1427 1425 1422 1423
1496 1487 1479 1472 1472 1468 1467 1466 1466 1466 1469 1456 1453 1451 1452 1450 1451 1448 1447 1450 1452 1454 1457 1456 1451 1450 1451 1451 1454 1455 1454 1454 1454 1454 1454 1454 1433 1419 1414 1425 1427 1427 1424 1422 1422
1494 1484 1477 1471 1471 1470 1471 1465 1464 1465 1465 1455 1454 1454 1452 1452 1450 1450 1449 1448 1448 1450 1453 1444 1447 1448 1448 1449 1452 1448 1454 1454 1454 1456 1461 1455 1455 1425 1424 1425 1427 1428 1427 1426 1426
1492 1483 1476 1474 1472 1471 1467 1466 1463 1467 1474 1454 1450 1453 1452 1449 1450 1451 1450 1450 1448 1449 1450 1449 1451 1452 1453 1455 1454 1455 1455 1459 1464 1463 1467 1445 1442 1433 1434 1438 1435 1431 1428 1427 1429
1490 1482 1477 1474 1471 1469 1467 1465 1470 1469 1454 1459 1457 1454 1453 1453 1450 1451 1450 1453 1454 1448 1448 1450 1454 1456 1456 1454 1455 1454 1456 1458 1459 1468 1445 1458 1455 1438 1443 1443 1441 1435 1429 1428 1430
1488 1481 1478 1474 1473 1469 1467 1467 1460 1463 1465 1463 1460 1457 1453 1456 1452 1452 1449 1454 1458 1456 1458 1459 1454 1455 1456 1456 1455 1458 1458 1461 1456 1453 1456 1463 1444 1438 1445 1440 1438 1435 1432 1431 1432
1485 1479 1476 1476 1472 1471 1469 1479 1467 1469 1468 1466 1460 1456 1456 1456 1457 1454 1454 1459 1463 1459 1460 1463 1458 1457 1456 1457 1459 1463 1462 1464 1469 1470 1462 1445 1439 1441 1440 1440 1438 1435 1434 1432 1431
1483 1476 1477 1475 1473 1470 1473 1469 1471 1470 1467 1464 1464 1460 1461 1461 1458 1459 1457 1461 1462 1461 1461 1464 1467 1455 1457 1458 1460 1460 1462 1473 1472 1459 1450 1451 1451 1435 1445 1439 1436 1434 1433 1432 1433
1485 1479 1477 1473 1474 1470 1475 1476 1473 1472 1467 1465 1464 1463 1461 1465 1464 1462 1459 1459 1460 1462 1461 1461 1462 1459 1459 1461 1458 1466 1464 1464 1468 1457 1456 1437 1439 1441 1433 1432 1435 1435 1434 1433 1433
1489 1486 1478 1474 1476 1479 1478 1475 1474 1471 1468 1466 1464 1464 1463 1464 1464 1459 1457 1456 1460 1461 1463 1464 1467 1460 1459 1460 1461 1462 1460 1461 1449 1461 1451 1450 1435 1437 1438 1435 1435 1434 1433 1433 1432
1494 1486 1480 1475 1482 1484 1480 1477 1474 1471 1469 1468 1465 1464 1464 1464 1469 1460 1460 1460 1460 1459 1466 1465 1471 1473 1457 1462 1461 1457 1457 1457 1457 1453 1450 1442 1437 1438 1439 1439 1435 1435 1433 1433 1431
1496 1492 1483 1482 1486 1488 1486 1480 1475 1472 1470 1469 1468 1466 1466 1466 1464 1464 1463 1459 1460 1459 1460 1461 1463 1465 1465 1453 1450 1452 1452 1453 1452 1444 1436 1436 1431 1437 1437 1435 1431 1430 1430 1429 1429
1500 1496 1492 1491 1487 1489 1489 1483 1477 1474 1471 1470 1469 1468 1473 1480 1475 1469 1461 1463 1458 1456 1458 1459 1459 1460 1456 1453 1452 1449 1447 1443 1442 1436 1436 1430 1432 1430 1431 1431 1429 1428 1427 1427 1427
1502 1500 1493 1489 1488 1488 1485 1481 1477 1473 1474 1472 1473 1468 1473 1478 1472 1467 1468 1466 1462 1458 1459 1458 1455 1456 1455 1446 1445 1446 1438 1436 1434 1431 1429 1430 1426 1426 1429 1430 1429 1428 1428 1428 1427
1493 1493 1490 1485 1485 1486 1483 1478 1473 1472 1469 1468 1468 1470 1470 1464 1460 1458 1457 1455 1455 1455 1453 1454 1454 1459 1456 1442 1445 1450 1435 1430 1432 1427 1426 1429 1425 1428 1428 1428 1429 1429 1429 1428 1428
Wind_Speed
22 21 21 20 20 19 19 19 19 19 19 19 18 18 18 19 20 22 26 21 17 13 15 12 11 11 12 11 10 6 1 6 8 8 5 6 5 5 5 5 11 13 9 6 9
25 25 24 24 23 22 21 21 21 21 21 21 21 21 20 20 21 25 17 16 14 12 12 13 13 14 9 8 8 5 4 8 5 4 4 6 8 7 6 7 9 14 20 15 15
28 27 27 27 26 25 24 24 24 23 23 22 21 22 20 18 20 4 2 3 11 12 12 10 10 13 7 8 11 8 8 5 5 10 5 4 5 8 6 6 14 23 29 24 24
29 29 29 30 29 29 27 25 25 25 25 24 24 21 19 12 5 5 6 3 9 11 11 11 12 9 5 7 10 3 13 8 4 6 6 5 5 6 16 17 11 14 16 26 29
30 30 30 30 30 31 32 30 27 26 25 24 24 21 16 8 12 13 8 8 10 11 11 12 14 9 5 5 5 5 4 5 12 16 10 7 10 6 17 28 26 16 18 24 30
31 30 30 30 30 30 31 30 29 29 26 24 21 19 12 6 10 8 9 9 10 10 10 13 8 12 5 5 6 2 3 8 10 16 10 7 4 8 25 26 26 27 26 25 29
31 30 29 30 31 31 31 29 28 26 25 25 17 13 14 18 13 11 10 10 9 9 9 10 12 7 2 3 5 3 5 6 8 7 7 10 3 10 33 17 15 20 24 27 30
34 34 32 32 31 30 29 26 23 25 22 16 11 8 8 6 6 10 9 10 9 8 7 7 9 9 5 4 4 2 2 2 2 5 3 9 5 11 17 18 21 20 23 26 30
36 37 36 33 32 31 29 22 23 20 11 6 4 5 6 3 3 6 6 5 6 5 4 4 6 5 2 2 3 2 4 4 7 6 3 5 3 2 3 7 13 16 21 25 27
33 35 36 34 30 30 24 24 12 7 3 1 3 2 4 2 2 0 3 5 3 5 5 5 3 2 2 3 6 5 4 4 5 1 2 3 13 12 17 11 20 21 22 25 27
34 34 35 32 28 25 25 13 7 2 5 5 10 11 15 12 9 7 7 5 4 4 5 2 2 8 9 6 1 1 3 4 6 4 3 10 12 14 16 12 21 31 24 30 31
35 34 34 33 26 14 16 8 9 9 11 9 3 4 5 5 3 2 3 4 4 3 4 3 8 7 4 5 7 6 5 11 8 2 6 6 16 13 16 12 10 12 14 15 18
37 37 34 30 18 13 9 13 11 9 4 6 2 2 1 1 3 3 4 5 3 5 6 6 3 4 5 3 4 4 5 5 8 4 2 5 8 4 1 6 12 14 13 8 18
37 39 35 25 5 10 4 10 13 7 3 3 1 1 2 0 1 2 6 4 2 6 7 5 2 3 3 4 7 4 2 2 3 2 3 2 8 3 3 5 3 14 21 17 5
37 35 28 18 10 7 11 12 12 2 4 2 2 2 6 2 0 1 3 3 4 5 4 4 2 2 3 1 2 2 2 0 2 3 2 3 2 5 5 4 6 8 20 16 5
37 33 19 14 11 15 13 12 3 4 5 2 1 4 5 2 3 2 0 1 1 2 1 4 2 3 1 1 1 0 1 2 3 2 2 2 6 4 1 4 6 5 16 14 8
37 29 13 15 16 16 15 6 4 4 4 5 4 6 2 4 2 3 2 4 2 4 2 3 2 1 2 2 2 2 3 3 3 1 4 4 0 6 4 3 4 6 11 10 6
34 27 9 12 16 16 14 3 2 4 3 3 5 6 2 5 3 6 2 2 6 4 3 2 3 1 3 1 2 2 3 3 4 2 3 1 5 3 4 7 6 6 5 7 6
37 19 6 14 14 13 6 2 2 0 3 7 9 2 2 3 6 6 3 2 1 4 3 2 4 1 1 1 1 2 2 5 1 3 1 3 3 2 3 4 2 2 4 3 4
39 17 8 16 15 7 3 1 2 1 3 1 2 1 2 4 4 6 3 1 4 1 4 2 5 2 2 1 2 1 4 3 1 4 5 4 4 4 3 0 3 3 4 4 1
29 10 9 15 12 3 2 3 3 3 5 1 2 4 2 1 2 1 3 3 3 1 2 1 6 1 2 4 4 1 2 2 1 2 3 4 5 4 8 6 2 4 5 1 6
18 4 12 20 4 3 1 2 4 3 4 3 1 4 2 2 2 4 5 2 2 1 2 0 2 4 8 2 1 2 3 4 3 4 3 3 5 3 2 1 2 6 6 6 8
21 8 7 14 3 3 5 4 3 2 2 4 2 2 3 2 3 3 3 2 2 4 3 1 2 3 6 0 1 2 3 4 4 1 6 4 4 2 2 6 10 10 4 7 7
9 4 6 8 6 3 4 4 5 5 1 2 3 3 3 3 2 4 3 2 0 3 6 5 5 7 7 9 7 8 5 6 8 4 5 6 10 4 3 6 3 5 7 5 2
4 3 1 4 3 4 2 4 4 4 3 3 4 1 3 1 4 5 2 5 7 7 1 3 4 5 8 10 6 13 15 14 13 15 8 5 7 5 4 4 3 5 9 7 5
4 4 4 12 14 3 3 3 4 3 1 3 3 4 4 4 7 11 4 4 7 4 3 2 4 1 7 14 13 13 15 14 14 15 13 13 17 3 3 2 3 6 7 7 6
7 13 11 5 2 2 4 6 4 2 6 10 4 1 5 12 14 21 22 17 9 4 4 3 2 1 5 4 2 6 7 4 3 5 5 4 2 2 2 2 1 3 5 5 6
Wind_Direction
354 351 348 345 342 339 335 332 331 330 327 324 325 328 319 308 299 288 282 283 269 251 240 231 237 226 208 204 208 183 170 238 237 172 238 171 185 202 194 191 193 201 224 214 186
351 347 343 340 335 331 327 323 321 320 319 316 317 322 319 312 303 292 285 273 247 231 221 222 226 206 187 196 197 177 189 230 214 200 224 190 198 184 176 191 222 222 226 223 196
348 344 341 337 333 329 325 321 317 313 310 307 310 315 315 314 312 279 279 286 213 215 215 219 207 193 202 185 193 189 225 196 245 230 226 201 217 204 178 232 216 220 226 215 202
341 337 334 330 327 323 319 317 317 314 306 304 306 309 305 296 287 277 293 253 197 200 209 204 186 177 199 208 208 218 247 220 251 235 207 202 191 202 207 243 252 245 250 220 209
340 337 334 328 323 319 315 314 312 309 307 302 302 302 290 251 251 272 252 219 210 220 230 217 192 183 188 203 188 221 248 241 255 250 235 218 224 223 244 252 252 249 232 224 219
342 340 335 329 326 321 317 313 311 305 302 300 299 288 258 224 258 256 237 233 237 235 229 218 214 213 234 221 182 210 255 267 263 250 231 208 257 194 254 261 248 243 240 227 224
343 341 336 329 328 326 324 320 312 302 300 303 296 272 250 261 249 241 233 230 231 238 247 241 231 205 207 272 267 296 301 292 229 234 228 209 230 230 251 255 234 236 236 231 228
346 342 339 333 332 328 327 323 313 304 302 296 285 251 261 256 258 240 231 226 235 235 232 237 228 237 237 292 337 292 121 282 249 152 232 171 259 250 252 254 247 238 235 231 228
342 339 337 334 334 331 332 330 313 301 301 288 248 234 270 282 258 247 227 217 195 191 193 193 185 213 200 122 356 315 258 219 311 196 119 192 257 270 232 230 257 250 245 241 234
342 335 330 331 333 332 336 338 329 328 338 288 226 211 241 325 342 31 189 192 185 175 154 173 172 132 58 130 237 228 236 243 252 206 160 242 253 274 273 266 266 267 252 239 235
342 335 327 328 332 335 340 357 349 304 320 283 287 273 280 285 285 253 237 243 192 174 164 133 145 220 213 210 206 244 225 247 254 209 204 243 258 263 269 242 260 258 258 256 249
344 335 328 327 333 340 354 47 29 322 310 321 348 279 275 258 229 235 218 184 156 164 119 61 234 214 190 192 223 242 270 272 278 183 196 284 276 252 250 251 268 302 305 273 249
343 338 330 328 334 347 20 34 1 338 272 298 329 331 347 138 181 180 167 169 153 150 191 185 179 126 172 184 192 221 211 226 250 331 235 311 276 258 354 87 59 33 359 305 251
343 339 334 334 355 355 45 356 348 338 351 285 5 38 340 331 233 204 175 171 183 196 171 230 256 184 166 217 171 261 268 289 274 359 267 337 294 199 250 96 49 14 11 9 241
344 341 346 354 360 19 336 334 336 5 4 337 344 339 330 260 128 203 201 172 202 191 157 250 165 146 210 226 198 260 19 286 174 187 359 186 205 261 6 7 332 357 10 20 39
344 343 351 8 4 341 342 327 329 53 257 341 61 352 356 5 14 350 286 223 174 173 40 269 36 34 63 91 16 8 299 71 53 104 258 249 188 289 38 254 317 336 13 30 48
343 343 345 353 346 342 335 332 27 141 -0 340 337 338 357 317 27 24 24 27 7 352 21 335 43 9 16 118 14 90 63 317 317 338 246 347 322 258 287 282 241 293 358 43 68
344 341 346 350 341 336 335 30 212 29 1 357 325 306 98 9 5 342 20 75 33 25 39 33 314 12 343 49 161 76 145 178 262 270 288 211 235 273 246 258 261 297 26 61 86
344 355 11 351 325 331 327 43 232 38 289 331 316 7 6 14 12 6 20 112 88 22 106 4 266 169 210 174 180 213 155 150 170 234 256 247 277 11 334 320 291 218 147 132 133
348 349 3 351 342 320 56 217 232 357 311 324 243 31 309 356 0 8 316 91 141 83 15 191 292 196 123 68 30 201 157 87 206 230 233 271 269 187 213 65 343 351 7 63 18
352 349 353 344 333 44 103 275 310 267 350 272 280 306 282 338 294 279 265 67 40 101 185 238 206 236 80 212 206 137 242 220 161 246 225 272 260 217 164 145 182 293 300 324 294
351 327 337 344 41 18 359 327 305 304 338 311 194 258 280 28 256 238 220 97 198 204 84 218 294 260 238 179 254 154 212 188 217 259 231 230 266 114 276 168 213 282 293 295 301
333 290 352 356 59 359 313 287 273 290 348 338 304 38 14 294 280 267 360 202 189 57 138 226 297 333 312 337 344 226 193 212 292 226 210 240 266 70 223 251 248 235 286 300 286
330 328 334 35 61 35 325 291 304 326 157 321 292 324 17 331 343 337 322 324 332 220 288 233 198 196 243 259 304 282 282 234 219 228 253 221 264 207 228 276 331 7 8 1 325
328 296 4 316 345 324 296 300 297 297 14 323 339 359 120 312 320 259 265 344 314 299 71 217 240 229 263 268 276 279 274 262 244 253 249 276 246 265 222 245 338 351 11 13 3
292 321 300 275 281 281 243 239 266 288 265 285 193 270 144 185 211 283 214 201 239 328 161 205 257 134 280 274 263 263 262 250 250 260 259 263 270 141 122 130 10 6 9 20 13
254 265 255 238 224 225 222 236 260 195 252 244 234 131 281 274 275 259 254 246 236 229 202 212 232 185 251 262 322 303 245 208 220 205 199 251 232 176 142 25 334 332 352 3 13